Hourly Data Report for October 05, 2015

All times are specified in Local Standard Time (LST). Add 1 hour to adjust for Daylight Saving Time where and when it is observed.

BAKER LAKE A
NUNAVUT

64°17'56.000" N
96°04'40.000" W
18.60 m
2300503
71926
YBK

Download Data

Hourly Data (October 2015)
Hourly Data Report for October 5, 2015
Temp Definition
°C
Dew Point Temp Definition
°C
Rel Hum Definition
%
Wind Dir Definition
10's deg

Wind Spd Definition
km/h
Visibility Definition
km
Stn Press Definition
kPa
Hmdx Definition


Wind Chill Definition


Weather Definition


TIME
00:00 Legend Double Dagger -2.4 -4.4 86 21 14 24.1 102.07   -7 Cloudy
01:00 Legend Double Dagger -2.5 -3.5 93 19 14 24.1 102.03   -7 Snow
02:00 Legend Double Dagger -2.4 -4.0 89 20 11 24.1 101.97   -6 Snow
03:00 Legend Double Dagger -2.1 -4.5 84 18 22 24.1 101.91   -8 Snow
04:00 Legend Double Dagger -2.0 -4.0 86 18 17 24.1 101.86   -7 Snow
05:00 Legend Double Dagger -1.7 -3.6 87 18 16 24.1 101.81   -7 LegendNANA
06:00 Legend Double Dagger -1.7 -3.7 86 21 16 32.2 101.74   -7 Cloudy
07:00 Legend Double Dagger -1.8 -3.2 90 18 16 32.2 101.68   -7 Snow
08:00 Legend Double Dagger -1.0 -3.5 83 19 22 32.2 101.62   -7 Snow
09:00 Legend Double Dagger -0.5 -2.7 85 21 10 32.2 101.58   -4 Snow
10:00 Legend Double Dagger 0.6 -2.6 79 17 21 32.2 101.49     LegendNANA
11:00 Legend Double Dagger 0.8 -3.0 76 19 25 32.2 101.42     LegendNANA
12:00 Legend Double Dagger 0.7 -2.2 81 18 22 32.2 101.35     Cloudy
13:00 Legend Double Dagger 0.6 -1.6 85 19 24 24.1 101.30     Snow
14:00 Legend Double Dagger 0.9 -2.3 79 20 21 32.2 101.24     Snow
15:00 Legend Double Dagger 0.5 -2.2 82 18 19 32.2 101.21     Snow
16:00 Legend Double Dagger 0.6 -2.5 80 19 21 32.2 101.18     LegendNANA
17:00 Legend Double Dagger 0.0 -1.8 88 19 13 32.2 101.13   -4 Snow
18:00 Legend Double Dagger 0.2 -1.6 88 16 7 32.2 101.09     Cloudy
19:00 Legend Double Dagger 0.7 -1.2 87 16 15 24.1 101.05     LegendNANA
20:00 Legend Double Dagger 0.7 -1.1 88 16 14 24.1 101.02     LegendNANA
21:00 Legend Double Dagger 0.7 -1.1 88 17 15 24.1 100.98     Cloudy
22:00 Legend Double Dagger 0.6 -1.3 87 17 13 24.1 100.96     LegendNANA
23:00 Legend Double Dagger 0.3 -1.0 91 17 11 24.1 100.94     LegendNANA

Notes on Data Quality.

Legend

  • E = Estimated
  • M = Missing
  • NA = Not Available
  • ‡ = Partner data that is not subject to review by the National Climate Archives
Date modified: